Weather in Chupa

Russia / Republic of Karelia     62°06′29″N   34°15′00″E
temp.,
°C
wind,
m/s
gust,
m/s
humid.,
%
clouds,
%
prec.,
mm/h
press.,
hPa
HPBL,
m
31 july, sat
sat3100:00+13s25835 0.0 99895
03:00+12ssw228457 0.0 99637
06:00+14s14797 0.1 995143
09:00+17ssw368384 1.6 995395
12:00+19s345592 1.0 9941086
15:00+20sw2355100 1.1 9941401
18:00+21wsw335364 0.1 9951033
21:00+17wsw387521 0.1 997256
1 august, sun
sun100:00+14wsw298547 0.0 999227
03:00+13wsw29935 0.0 1000209
06:00+14sw28855 0.0 1001217
09:00+20sw486018 0.0 1001668
12:00+23sw565491 0.1 10011782
15:00+19sw4883100 1.6 1001835
18:00+18s2688100 1.1 1000657
21:00+17ssw31083100 1.4 999371
2 august, mon
mon200:00+15sw41189100 0.0 999766
03:00+16sw41089100 0.1 1000833
06:00+15sw51181100 0.1 1001899
09:00+18wsw596772 0.1 10021064
12:00+22wsw574573 0.0 10021701
15:00+24sw5639100 0.0 10022094
18:00+21ssw3649100 0.0 1002569
21:00+17ssw1166100 0.0 100111
3 august, tue
tue300:00+14s1195100 1.1 100029
03:00+14n2498100 4.3 999171
06:00+13nw2898100 1.6 998337
09:00+15nnw3688100 2.1 999527
12:00+21n235311 0.0 9991222
15:00+19ssw117794 2.2 1001677
18:00+17n2388100 5.1 1002267
21:00+14nnw3996100 6.9 1005489
4 august, wed
wed400:00+12nnw389586 0.3 1007402
03:00+9nw279820 0.3 1010241
06:00+9nw289713 0.0 1012320
09:00+13nnw25680 0.0 1013619
12:00+19n25394 0.0 10141700
15:00+20nw2334100 0.0 10152485
18:00+17e125218 0.0 1016283
21:00+14sw116597 0.0 101813